Regional Weather Roundup
Issued by NWS Newport/Morehead, NC

Current Version | Previous Version | Text Only | Print | Product List | Glossary On
Versions: 1 2 3 4 5 6 7 8 9 10 11 12 13 14 15 16 17 18 19 20 21 22 23 24 25 26 27 28 29 30 31 32 33 34 35 36 37 38 39 40 41 42 43 44 45 46 47 48 49 50
354
ASUS42 KMHX 091325
RWRMHX
WEATHER ROUNDUP FOR EASTERN NORTH CAROLINA
NATIONAL WEATHER SERVICE NEWPORT/MOREHEAD CITY NC
800 AM EST TUE FEB 09 2016

NOTE: "FAIR" INDICATES FEW OR NO CLOUDS BELOW 12,000 FEET
WITH NO SIGNIFICANT WEATHER AND/OR OBSTRUCTIONS TO VISIBILITY

NCZ015>017-031-032-045>047-102-103-091400-
NORTH COAST

CITY           SKY/WX    TMP DP  RH WIND       PRES   REMARKS
EDENTON        PTSUNNY   41  38  90 W9        29.63R
ELIZABETH CITY SUNNY     38  36  92 W8        29.59R
KITTY HAWK     PTSUNNY   41  39  90 W7        29.57S
MANTEO         PTSUNNY   40  39  97 W9        29.60R

$$

NCZ045>047-081-094-103-104-091400-
CENTRAL COAST

CITY           SKY/WX    TMP DP  RH WIND       PRES   REMARKS
FRISCO         PTSUNNY   43  39  86 W9        29.61R
SWANQUARTER      N/A     41 N/A N/A W5        29.59S

$$

NCZ095-097-098-100-101-091400-
SOUTHERN COAST

CITY           SKY/WX    TMP DP  RH WIND       PRES   REMARKS
BEAUFORT       MOSUNNY   41  39  93 W12       29.65R
CEDAR ISLAND     N/A     43 N/A N/A W6G16     29.68S
JACKSONVILLE   CLOUDY    40  37  89 W13       29.68R
PINEY ISLAND   SUNNY    N/A N/A N/A W10       29.63S
WILMINGTON     CLOUDY    41  35  79 W9        29.70R


$$

NCZ011>013-027>030-043-044-078>080-089-090>093-098-091400-
COASTAL PLAIN

CITY           SKY/WX    TMP DP  RH WIND       PRES   REMARKS
AHOSKIE        CLOUDY    35  32  88 CALM      29.63R
CLINTON        CLOUDY    37  37 100 SW6       29.69R
ELIZABETHTOWN  CLOUDY    38  35  88 SW10      29.71R
GOLDSBORO      CLOUDY    39  39 100 W8        29.64R
GREENVILLE     CLOUDY    37  36  93 CALM      29.67S
HAVELOCK       PTSUNNY   40  38  93 W9        29.66R
KENANSVILLE    CLOUDY    38  37  98 SW5       29.69R
KINSTON        PTCLDY    37  37 100 W5        29.66R FOG
NEW BERN       PTSUNNY   38  36  92 W8        29.67R FOG
RICHLANDS      CLOUDY    39  34  81 SW8       29.69R
ROCKY MOUNT    CLOUDY    37  32  82 CALM      29.64R
WASHINGTON     MOSUNNY   37  36  96 CALM      29.64S FOG
WHITEVILLE     CLOUDY    39  30  71 SW6       29.72R

$$

AMZ130-135-150-152-154-156-158-170-250-252-270-ANZ085-086-088-633-658-670-091400-
MARINE OBSERVATIONS

STATION/POSITION TIME  TEMP    WIND        PRES    WAVE   SWELL
                       AIR SEA DIR/SP/G            HT/PER HT/PER
                 (UTC) (F)     (DEG/KT/KT) (MB)    (FT/S) (FT/S)
CHESAPEAKE LIGHT 1300   42     320/ 13/ 14 1001.6
64 E VA BEACH    1250   46 51  290/ 19/ 25  999.1   11/14  10/14
DUCK             1300   41     280/  9/ 12 1001.1
2 E DUCK         1311      44                N/A     8/14   7/14
OREGON INLET     1300   41 45  260/ 10/ 14 1001.9
13E OREGON INLT  1300      47                N/A    14/15  13/15
HATTERAS CG      1300   43 52  270/ 16/ 19 1002.2
DIAMOND BUOY     1250   47 73  290/ 17/ 23 1002.1   12/14  11/14
CAPE LOOKOUT     NOT AVBL
BEAUFORT LAB     1300   42 47  270/  4/  8 1003.1
30 SE NEW RVR IN 1308   46 60              1004.1
30 SE NEW RVR IN 1225      60                N/A     7/14   3/14
27 SE WRIGHTSVLE 1308   37 61  290/ 21/ 29 1005.2
5 SE WRIGHTSVLE  1208   42 51  280/ 19/ 27 1004.8
225 S CAPE HAT   1250   57 69  280/ 33/ 41   N/A    17/11   8/15
41 SE CHARLESTON 1250   46 65  290/ 29/ 33 1008.4    8/ 7   2/13

$$




USA.gov is the U.S. government's official web portal to all federal, state and local government web resources and services.